Starlink 32682

operational
NORAD ID: 62196 Int'l Des: 2024-229 Owner: SPXS Country: US Constellation: starlink
LEOCIRCULAR

Starlink 32682について

説明を読み込み中...

リアルタイム位置

3D地球を読み込み中...

次回通過

高度履歴

Altitude vs Time

uPlot chart will show altitude changes over time

軌道要素

1 62196U 24229E 25303.23911160 .00048388 00000-0 17550-2 0 9990
2 62196 43.0009 254.7561 0001260 274.0905 85.9803 15.27606330 50986
Epoch: Oct 30, 2025 • Age: 17 hours

現在のステータス

高度 487.3 km
速度 7.62 km/s
衛星直下点 -21.97°S, 157.1°W
打ち上げ日 Dec 4, 2024
運用期間 0.9 years
タイプ internet

技術仕様

分類 Payload
質量 730.00 kg
乾燥質量 700.00 kg
総質量 730.00 kg
長さ 0.30 m
直径 4.10 m
スパン 29.00 m
形状 Box + pan
製造者 SPXS
バスタイプ Starlink V2M
フェーズステータス In Orbit
所有者/国 SPXS/US

大規模コンステレーション

Loading constellations...